User: anonymous   Login
Location: Unspecified
(0.0000°N, 0.0000°E)
Time: 05:07:28
(UTC+00:00)
Language:

Cosmos 1500 - Orbit

View from above orbital plane
View from above orbital plane
View from above satellite
View from above satellite

Ground track
Ground track

The orbit data is extracted from the following two-line orbital elements,

1 14372U 83099A   18196.46542207 +.00000536 +00000-0 +24621-4 0  9994
2 14372 082.5164 314.7741 0016045 153.1918 252.0030 15.18045131897157
Epoch (UTC): 15 July 2018 11:10:12
Eccentricity: 0.0016045
inclination: 82.5164°
perigee height: 501 km
apogee height: 523 km
right ascension of ascending node: 314.7741°
argument of perigee: 153.1918°
revolutions per day: 15.18045131
mean anomaly at epoch: 252.0030°
orbit number at epoch: 89715

The dashed part of the orbit path shows where the satellite is in the earth's shadow,  

DLR